Volver al catálogo

ZHONGYUAN-1

ActivoCienciaSSO
NORAD 56153·PAYLOAD·🇨🇳 China
Este nombre de satélite aún no ha sido confirmado por fuentes oficiales.

Lanzado Mar 30, 2023 desde Taiyuan Satellite Launch Center

Loading…

Próximos Pases (próximas 24 horas)

TLE

ActualizadoSource: Space-Track

Época: Sep 14, 2026, 11:51 UTC

1 56153U 23047A   26257.49403825  .00002268  00000-0  12742-3 0  9990
2 56153  97.5016  83.3498 0001762  83.6271 276.5161 15.14309314191312

Sigue ZHONGYUAN-1 en tiempo real con AllMySat

Download on the App Store